KV6O Weather Reports


time (UTC)temp
F
wind
direction
speed
knots
gust
knots
rain 1hr
in
rain 24hr
in
rain mn
in
humidity
%
barometer
mb
20260508014041 47 0 0.0 0.0 0.00 0.00 0.31 63
20260508013241 47 0 0.0 0.0 0.00 0.00 0.31 66
20260508012441 47 0 0.0 0.0 0.00 0.00 0.31 65
20260508010842 48 0 0.0 0.0 0.00 0.00 0.31 71
20260508010041 49 0 0.0 0.0 0.00 0.00 0.31 70
20260508005641 50 0 0.0 0.0 0.00 0.00 0.31 68
20260508004841 50 0 0.0 0.0 0.00 0.00 0.31 65
20260508004041 51 0 0.0 0.0 0.00 0.00 0.31 59
20260508002442 50 0 0.0 0.0 0.00 0.00 0.31 61
20260508000841 50 0 0.0 0.0 0.00 0.00 0.31 60
20260508000041 51 0 0.0 0.0 0.00 0.00 0.31 68
20260507235641 51 0 0.0 0.0 0.00 0.00 0.31 64
20260507234842 52 0 0.0 0.0 0.00 0.00 0.31 59
20260507234041 52 0 0.0 0.0 0.00 0.00 0.31 62
20260507231641 52 0 0.0 0.0 0.00 0.00 0.31 60
20260507230840 52 0 0.0 0.0 0.00 0.00 0.31 63
20260507230040 53 0 0.0 0.0 0.00 0.00 0.31 60
20260507225641 53 0 0.0 0.0 0.00 0.00 0.31 60
20260507224846 52 0 0.0 0.0 0.00 0.00 0.31 57
20260507224041 52 0 0.0 0.0 0.00 0.00 0.31 61
20260507223241 51 0 0.0 0.0 0.00 0.00 0.31 59
20260507222441 51 0 0.0 0.0 0.00 0.00 0.31 62
20260507221641 51 0 0.0 0.0 0.00 0.00 0.31 61
20260507220841 51 0 0.0 0.0 0.00 0.00 0.31 65
20260507220041 51 0 0.0 0.0 0.00 0.00 0.31 63
20260507214841 51 0 0.0 0.0 0.00 0.00 0.31 65
20260507214041 52 0 0.0 0.0 0.00 0.00 0.31 58
20260507212440 53 0 0.0 0.0 0.00 0.00 0.31 58
20260507211641 52 0 0.0 0.0 0.00 0.00 0.31 56
20260507210041 52 0 0.0 0.0 0.00 0.00 0.31 56
20260507205640 51 0 0.0 0.0 0.00 0.00 0.31 60
20260507204841 51 0 0.0 0.0 0.00 0.00 0.31 63
20260507204040 51 0 0.0 0.0 0.00 0.00 0.31 59
20260507202441 52 0 0.0 0.0 0.00 0.00 0.31 57
20260507200041 51 0 0.0 0.0 0.00 0.00 0.31 64
20260507195641 51 0 0.0 0.0 0.00 0.00 0.31 62
20260507194841 50 0 0.0 0.0 0.00 0.00 0.31 62
20260507194041 50 0 0.0 0.0 0.00 0.00 0.31 60
20260507193242 50 0 0.0 0.0 0.00 0.00 0.31 60
20260507192441 50 0 0.0 0.0 0.00 0.00 0.31 60
20260507190842 50 0 0.0 0.0 0.00 0.00 0.31 66
20260507185642 51 0 0.0 0.0 0.00 0.00 0.31 63
20260507184841 51 0 0.0 0.0 0.00 0.00 0.31 63
20260507184041 51 0 0.0 0.0 0.00 0.00 0.31 62
20260507183241 52 0 0.0 0.0 0.00 0.00 0.31 58
20260507182440 53 0 0.0 0.0 0.00 0.00 0.31 57
20260507180841 51 0 0.0 0.0 0.00 0.00 0.31 60
20260507180041 49 0 0.0 0.0 0.00 0.00 0.30 67
20260507175640 48 0 0.0 0.0 0.00 0.00 0.30 70
20260507174041 47 0 0.0 0.0 0.00 0.00 0.26 70
20260507173242 46 0 0.0 0.0 0.00 0.00 0.23 68
20260507170841 46 0 0.0 0.0 0.00 0.00 0.13 73
20260507170040 46 0 0.0 0.0 0.00 0.00 0.11 74
20260507165642 46 0 0.0 0.0 0.00 0.00 0.09 77
20260507164841 45 0 0.0 0.0 0.00 0.00 0.07 77
20260507164040 44 0 0.0 0.0 0.00 0.00 0.05 73
20260507163241 44 0 0.0 0.0 0.00 0.00 0.04 79
20260507162441 44 0 0.0 0.0 0.00 0.00 0.03 82
20260507161641 44 0 0.0 0.0 0.00 0.00 0.03 79
20260507160841 45 0 0.0 0.0 0.00 0.00 0.02 80
20260507160041 47 0 0.0 0.0 0.00 0.00 0.02 74
20260507155640 47 0 0.0 0.0 0.00 0.00 0.01 67
20260507154841 47 0 0.0 0.0 0.00 0.00 0.01 70
20260507154040 46 0 0.0 0.0 0.00 0.00 0.00 73
20260507153241 45 0 0.0 0.0 0.00 0.00 0.00 82
20260507152441 44 0 0.0 0.0 0.00 0.00 0.00 81
20260507151641 43 0 0.0 0.0 0.00 0.00 0.00 87
20260507150841 42 0 0.0 0.0 0.00 0.00 0.00 84
20260507150041 41 0 0.0 0.0 0.00 0.00 0.00 89
20260507144041 38 0 0.0 0.0 0.00 0.00 0.00 90
20260507143241 37 0 0.0 0.0 0.00 0.00 0.00 88
20260507142441 37 0 0.0 0.0 0.00 0.00 0.00 89
20260507141641 36 0 0.0 0.0 0.00 0.00 0.00 89
20260507140840 36 0 0.0 0.0 0.00 0.00 0.00 87
20260507140041 35 0 0.0 0.0 0.00 0.00 0.00 86
20260507135641 34 0 0.0 0.0 0.00 0.00 0.00 88
20260507134041 32 0 0.0 0.0 0.00 0.00 0.00 90
20260507133240 32 0 0.0 0.0 0.00 0.00 0.00 90
20260507132442 31 0 0.0 0.0 0.00 0.00 0.00 92
20260507131643 31 0 0.0 0.0 0.00 0.00 0.00 94
20260507130841 30 0 0.0 0.0 0.00 0.00 0.00 95
20260507130041 29 0 0.0 0.0 0.00 0.00 0.00 95
20260507125640 29 0 0.0 0.0 0.00 0.00 0.00 96
20260507124841 28 0 0.0 0.0 0.00 0.00 0.00 96
20260507124042 28 0 0.0 0.0 0.00 0.00 0.00 96
20260507122441 27 0 0.0 0.0 0.00 0.00 0.00 95
20260507121640 27 0 0.0 0.0 0.00 0.00 0.00 95
20260507120841 27 0 0.0 0.0 0.00 0.00 0.00 95
20260507120041 27 0 0.0 0.0 0.00 0.00 0.00 95
20260507114041 27 0 0.0 0.0 0.00 0.00 0.00 94
20260507113241 28 0 0.0 0.0 0.00 0.00 0.00 94
20260507112441 27 0 0.0 0.0 0.00 0.00 0.00 93
20260507111641 27 0 0.0 0.0 0.00 0.00 0.00 94
20260507110841 27 0 0.0 0.0 0.00 0.00 0.00 94
20260507105641 28 0 0.0 0.0 0.00 0.00 0.00 93
20260507104841 28 0 0.0 0.0 0.00 0.00 0.00 92
20260507104042 29 0 0.0 0.0 0.00 0.00 0.00 90
20260507103241 29 0 0.0 0.0 0.00 0.00 0.00 89
20260507102441 29 0 0.0 0.0 0.00 0.00 0.00 89
20260507100841 29 0 0.0 0.0 0.00 0.00 0.00 88
20260507095640 29 0 0.0 0.0 0.00 0.00 0.00 88
20260507094841 29 0 0.0 0.0 0.00 0.00 0.00 90
20260507094041 29 0 0.0 0.0 0.00 0.00 0.00 89
20260507093242 29 0 0.0 0.0 0.00 0.00 0.00 89
20260507092441 30 0 0.0 0.0 0.00 0.00 0.00 88
20260507091641 30 0 0.0 0.0 0.00 0.00 0.00 86
20260507090841 29 0 0.0 0.0 0.00 0.00 0.00 88
20260507090040 29 0 0.0 0.0 0.00 0.00 0.00 90
20260507085641 29 0 0.0 0.0 0.00 0.00 0.00 90
20260507084841 28 0 0.0 0.0 0.00 0.00 0.00 91
20260507084042 28 0 0.0 0.0 0.00 0.00 0.00 92
20260507083241 28 0 0.0 0.0 0.00 0.00 0.00 93
20260507081640 28 0 0.0 0.0 0.00 0.00 0.00 93
20260507080041 27 0 0.0 0.0 0.00 0.00 0.00 94
20260507074841 27 0 0.0 0.0 0.00 0.00 0.00 95
20260507074041 27 0 0.0 0.0 0.00 0.00 0.00 96
20260507073241 26 0 0.0 0.0 0.00 0.00 0.00 96
20260507072442 25 0 0.0 0.0 0.00 0.00 0.00 97
20260507071641 25 0 0.0 0.0 0.00 0.00 0.00 98
20260507070841 24 0 0.0 0.0 0.00 0.00 0.00 99
20260507070040 24 0 0.0 0.0 0.00 0.00 0.00 99
20260507065641 24 0 0.0 0.0 0.00 0.00 0.00 99
20260507064842 24 0 0.0 0.0 0.00 0.00 0.00 99
20260507064041 25 0 0.0 0.0 0.00 0.00 0.00 99
20260507062441 25 0 0.0 0.0 0.00 0.00 0.00 99
20260507061641 25 0 0.0 0.0 0.00 0.00 0.00 99
20260507060841 25 0 0.0 0.0 0.00 0.00 0.00 99
20260507055641 24 0 0.0 0.0 0.00 0.00 0.03 99
20260507054842 24 0 0.0 0.0 0.00 0.00 0.03 99
20260507054041 24 0 0.0 0.0 0.00 0.00 0.03 100
20260507053241 24 0 0.0 0.0 0.00 0.00 0.03 100
20260507052441 24 0 0.0 0.0 0.00 0.00 0.03 100
20260507051641 24 0 0.0 0.0 0.00 0.00 0.03 100
20260507050040 24 0 0.0 0.0 0.00 0.00 0.03 100
20260507045641 24 0 0.0 0.0 0.00 0.00 0.03 100
20260507044841 24 0 0.0 0.0 0.00 0.00 0.03 100
20260507044040 24 0 0.0 0.0 0.00 0.00 0.03 100
20260507042441 24 0 0.0 0.0 0.00 0.00 0.03 100
20260507041642 24 0 0.0 0.0 0.00 0.00 0.03 100
20260507040841 24 0 0.0 0.0 0.00 0.00 0.03 100
20260507040041 24 0 0.0 0.0 0.00 0.00 0.03 100
20260507035641 24 0 0.0 0.0 0.00 0.00 0.03 100
20260507034841 24 0 0.0 0.0 0.00 0.00 0.03 100
20260507034041 24 0 0.0 0.0 0.00 0.00 0.03 100
20260507033241 24 0 0.0 0.0 0.00 0.00 0.03 100
20260507032441 24 0 0.0 0.0 0.00 0.00 0.03 100
20260507031641 23 0 0.0 0.0 0.00 0.00 0.03 100
20260507030841 23 0 0.0 0.0 0.00 0.00 0.03 100
20260507025641 23 0 0.0 0.0 0.00 0.00 0.03 100
20260507024841 23 0 0.0 0.0 0.00 0.00 0.03 100
20260507024041 23 0 0.0 0.0 0.00 0.00 0.03 100
20260507023241 23 0 0.0 0.0 0.00 0.00 0.03 100
20260507022441 24 0 0.0 0.0 0.00 0.00 0.03 100
20260507021642 24 0 0.0 0.0 0.00 0.00 0.03 100
20260507020841 24 0 0.0 0.0 0.00 0.00 0.03 100
20260507020041 24 0 0.0 0.0 0.00 0.00 0.03 100
20260507015640 25 0 0.0 0.0 0.00 0.00 0.03 100
20260507014841 25 0 0.0 0.0 0.00 0.00 0.03 100